Погода в Сухэ-Баторе

Монголия     50°14′25″N   106°11′40″E
темп.,
°C
ветер,
м/с
пор.,
м/с
влажн.,
%
обл.,
%
осадки,
мм/ч
давл.,
гПа
погр.,
м
18 апреля, вс
вс1823:00+10зсз2233100 0.0 100211
02:00+7ссв61255100 0.0 1007603
05:00+2ссв81353100 0.0 1015884
08:00+1ссв8134192 0.0 1020895
11:00+3ссв8934100 0.0 10221357
14:00+5ссв67305 0.0 10201626
17:00+6св56281 0.0 10191520
20:00+2св47325 0.0 1020198
19 апреля, пн
пн1923:000ссв223453 0.0 102129
02:00−2ссв12325 0.0 102111
05:00−3ююв11336 0.0 102010
08:00+1ю12275 0.0 1019194
11:00+8ююз46321 0.0 1015820
14:00+14ююз57255 0.0 10091233
17:00+17ююз69212 0.0 10052223
20:00+12ю511284 0.0 1005235
20 апреля, вт
вт2023:00+10ю3631100 0.0 100485
02:00+7зюз2236100 0.0 100413
05:00+7ссв484071 0.0 1006216
08:00+4ссв51058100 0.0 1011589
11:00+8ссв554562 0.0 1010965
14:00+13ссв32335 0.0 10071239
17:00+14всв43280 0.0 10041033
20:00+9св46390 0.0 100496
21 апреля, ср
ср2123:00+5с4849100 0.0 1006235
02:00+3ссв4124876 0.0 1008486
05:00−1с512490 0.0 1011599
08:00+1ссв710515 0.0 1013730
11:00+5ссв78395 0.0 10121172
14:00+7ссв883626 0.0 10111301
17:00+4с10124018 0.0 10131193
20:00−2ссв101764100 0.0 1019867
22 апреля, чт
чт2223:00−2ссв61360100 1.1 10231056
02:00−2ссв61157100 1.3 10261034
05:00−4ссв5126469 0.0 1028679
08:00−2ссв71149100 0.0 1029895
11:00+1ссв7835100 0.0 10281228
14:00+4ссв7828100 0.0 10251441
17:00+1с6951100 2.4 10291303
20:00−2с51086100 4.0 1033750